Regional Weather Roundup
Issued by NWS Wilmington, NC

Home | Current Version | Previous Version | Text Only | Print | Product List | Glossary On
Versions: 1 2 3 4 5 6 7 8 9 10 11 12 13 14 15 16 17 18 19 20 21 22 23 24 25 26 27
000
ASUS42 KILM 310513
RWRILM
RWRILM
REGIONAL HOURLY WEATHER ROUNDUP
NATIONAL WEATHER SERVICE WILMINGTON NC
100 AM EDT SUN JUL 31 2016

NOTE: "FAIR" INDICATES FEW OR NO CLOUDS BELOW 12,000 FEET WITH NO
SIGNIFICANT WEATHER AND/OR OBSTRUCTIONS TO VISIBILITY.

...............WFO WILMINGTON COUNTY WARNING AREA...............

......COASTAL NC AND SC COUNTIES......

CITY           SKY/WX    TMP DP  RH WIND       PRES   REMARKS
WILMINGTON     CLEAR     81  75  82 W6        30.02S
N MYRTLE BEACH CLOUDY    85  78  80 SW12      30.01S HX  96
MYRTLE BEACH   MOCLDY    84  72  65 SW10      30.03S

......INLAND NC AND SC COUNTIES.......

CITY           SKY/WX    TMP DP  RH WIND       PRES   REMARKS
LUMBERTON      CLOUDY    76  73  91 SE3       30.00R
ELIZABETHTOWN  MOCLDY    77  74  91 S3        30.01S
WHITEVILLE     CLOUDY    77  73  87 CALM      30.01S
FLORENCE       CLOUDY    77  73  87 S5        30.01S
DARLINGTON     CLOUDY    76  75  97 SW3       30.00F
KINGSTREE      FAIR      79  72  78 S6        30.01S
HARTSVILLE     FAIR      73  73 100 CALM      30.00F
BENNETTSVILLE  FAIR      77  75  94 CALM      30.00S
CONWAY         FAIR      79  73  83 S5        30.01S
GEORGETOWN     FAIR      81  75  83 SW3       30.03S
MARION           N/A     75  72  88 S3        30.01R

....................REST OF NORTH CAROLINA......................

.........EASTERN NC.........

CITY           SKY/WX    TMP DP  RH WIND       PRES   REMARKS
CAPE HATTERAS  PTCLDY    81  80  97 SW10      30.00F HX  91
JACKSONVILLE   CLOUDY    79  76  90 S3        30.01S
MOREHEAD CITY  CLEAR     84  80  88 SW12      30.00F HX  97
KENANSVILLE    NOT AVBL
NEW BERN       LGT RAIN  80  77  90 S6        30.00F
ELIZABETH CITY CLOUDY    77  76  96 SW7       29.96F

.........CENTRAL NC.........

CITY           SKY/WX    TMP DP  RH WIND       PRES   REMARKS
RALEIGH DURHAM MOCLDY    77  73  87 W5        30.01S
ROCKY MOUNT    CLOUDY    75  75 100 CALM      29.99F
ROANOKE RAPIDS NOT AVBL
FAYETTEVILLE   MOCLDY    79  72  79 S8        29.99S
HOFFMAN        CLOUDY    76  73  90 S3        30.00S

.........WESTERN NC.........

CITY           SKY/WX    TMP DP  RH WIND       PRES   REMARKS
CHARLOTTE      MOCLDY    76  70  82 W6        30.03S
GREENSBORO     CLOUDY    79  72  79 SW3       30.01S
HICKORY        NOT AVBL
BOONE          NOT AVBL
ASHEVILLE      NOT AVBL

.....................REST OF SOUTH CAROLINA.....................

.........EASTERN SC.........

CITY           SKY/WX    TMP DP  RH WIND       PRES   REMARKS
CHARLESTON     PTCLDY    83  75  77 SW8       30.03R HX  90
BEAUFORT MCAS  MOCLDY    85  77  77 VRB3      30.03S HX  95
HILTON HEAD    CLOUDY    86  77  74 S9G20     30.04S HX  97

.........CENTRAL SC.........

CITY           SKY/WX    TMP DP  RH WIND       PRES   REMARKS
COLUMBIA       PTCLDY    81  71  71 CALM      30.01S
ORANGEBURG     MOCLDY    79  71  76 S3        30.03R
SUMTER SHAW    MOCLDY    81  72  73 SW7       30.00R

.........WESTERN SC.........

CITY           SKY/WX    TMP DP  RH WIND       PRES   REMARKS
GREENVILLE     NOT AVBL
ROCK HILL      PTCLDY    76  69  79 CALM      30.03F
ANDERSON       PTCLDY    77  72  84 CALM      30.02F
CLEMSON        NOT AVBL
GREENWOOD      PTCLDY    76  70  82 CALM      30.03F


...................COASTAL AND OFFSHORE REPORTS..................

................LOCAL PIERS AND NC RESERVE................


STATION/POSITION TIME  SKY/WX   TEMP    WIND        PRES    VSBY
                                AIR SEA DIR/SP/G
                 (UTC)          (F)     (DEG/KT/KT) (MB)    (MI)
JOHNY MRCER PIER 0400            84 82  210/  8/ 10 1015.3
NC RESRV MASNBRO NOT AVBL
OCEAN CREST PIER NOT AVBL
SPRINGMAID  PIER 0400            84 84              1015.9


................COASTAL AND OFFSHORE BUOYS................


STATION/POSITION TIME  SKY/WX   TEMP    WIND        PRES    VSBY
                                AIR SEA DIR/SP/G
                 (UTC)          (F)     (DEG/KT/KT) (MB)    (MI)
DIMNDSHOAL 41025 0450            85 84  210/ 19/ 23 1015.8F
WVE H/P(F/S)=  4/ 4 SWL H/P/D(F/S/D)=  2/300/ 9

CAPE LOOKOUT     0500            84     220/  9/ 11 1016.1F
ONSLOW BAY 41036 NOT AVBL
ONSLOW BAY 41064 0408            85 85  210/ 14/ 19 1016.6F
ONSLOW BAY 41159 0425               85                N/A
WVE H/P(F/S)=  4/ 6

5SE WRITBC 41038 0408            83 80  220/ 10/ 14 1017.0F
MASNBO INL 41110 0406               80                N/A
WVE H/P(F/S)=  2/ 4

WILM HARBR 41108 0426               85                N/A
WVE H/P(F/S)=  3/ 4

27SE WRITB 41037 0408            85 85  200/ 14/ 17 1016.9F
FRYING PAN 41013 0400            86 85  200/ 12/ 16 1016.8F
SUNST NRSH 41024 0408            85 85  210/  6/ 10 1016.1R
CAPRS NRSH 41029 0408            86 86  220/ 17/ 21 1016.5R
EDISTO     41004 0450            86 86  190/ 17/ 21 1016.1F
WVE H/P(F/S)=  3/ 4 SWL H/P/D(F/S/D)=  2/140/ 8



..........OFFSHORE BUOYS BEYOND 100 NM OFFSHORE...........
.....IN A TRIANGLE---HAT TO BERMUDA TO BAHAMAS TO HAT.....


STATION/POSITION TIME  SKY/WX   TEMP    WIND        PRES    VSBY
                                AIR SEA DIR/SP/G
                 (UTC)          (F)     (DEG/KT/KT) (MB)    (MI)
150E HAT   41001 NOT AVBL
W BERMUDA  41048 0450            85 85  210/ 14/ 17 1020.9F
WVE H/P(F/S)=  5/ 6 SWL H/P/D(F/S/D)=  2/120/ 9

ATLANTIC S 41049 0450            83 85  100/ 10/ 12 1023.6F
WVE H/P(F/S)=  4/ 8 SWL H/P/D(F/S/D)=  3/110/ 8

E BAHAMAS  41046 0400            84 85   80/ 16/ 19 1020.1F
NE BAHAMAS 41047 0400            84 85  160/ 12/ 14 1021.4R
120E CANVRL41010 0420            85 87  150/ 14/ 16 1018.8F

END




USA.gov is the U.S. government's official web portal to all federal, state and local government web resources and services.